Regional Weather Roundup
Issued by NWS

Home | Current Version | Previous Version | Graphics & Text | Print | Product List | Glossary On
Versions: 1 2 3 4 5 6 7 8 9 10 11 12 13 14 15 16 17 18 19 20 21 22 23 24 25 26 27 28 29 30 31 32 33 34 35 36 37 38 39 40 41 42 43 44 45 46 47 48 49 50
000
ASUS43 KIND 250059
RWRIN

WEATHER ROUNDUP FOR INDIANA
NATIONAL WEATHER SERVICE INDIANAPOLIS IN
900 PM EDT FRI APR 24 2015

NOTE: "FAIR" INDICATES FEW OR NO CLOUDS BELOW 12,000 FEET WITH NO
SIGNIFICANT WEATHER AND/OR OBSTRUCTIONS TO VISIBILITY.

* - STATION DOES NOT REPORT WEATHER SUCH AS PRECIPITATION OR FOG.

+ - STATION NOT QUALITY CONTROLLED BY THE NATIONAL WEATHER SERVICE.
    USE DATA WITH CAUTION...ESPECIALLY DEWPOINT AND RELATIVE
    HUMIDITY OBSERVATIONS.

INZ001>003-010>013-019-020-250200-
NORTHWEST INDIANA

CITY           SKY/WX    TMP DP  RH WIND       PRES   REMARKS
GARY /AIRPORT/ CLOUDY    46  25  42 E14       29.93F
KNOX *+        CLOUDY    55 -15   5 SE7       29.90F

$$

LMZ046-743>745-250200-
SOUTHERN LAKE MICHIGAN

STATION/POSITION TIME  TEMP    WIND        PRES    WAVE
                       AIR SEA DIR/SP/G            HT
                 (UTC) (F)     (DEG/KT/KT) (MB)    (FT)
BURNS HARBOR     0000   47      70/ 20/ 23 1013.5F
MICHIGAN CITY    0000   47      40/ 19/ 21   N/A
5NW MICH CITY    0000   44 44   70/ 14/ 19   N/A     3

$$

INZ004-005-014>016-021>024-250200-
NORTH CENTRAL INDIANA

CITY           SKY/WX    TMP DP  RH WIND       PRES   REMARKS
ELKHART        CLOUDY    54  21  28 NE9       29.94F
GOSHEN         CLOUDY    54  28  36 NE7       29.94S
SOUTH BEND     CLOUDY    52  26  36 NE10      29.95S
WARSAW +       CLOUDY    54  28  37 CALM      29.93S

$$

INZ006>009-017-018-025>027-250200-
NORTHEAST INDIANA

CITY           SKY/WX    TMP DP  RH WIND       PRES   REMARKS
ANGOLA *+      CLOUDY    50  30  46 NE10      29.97R
FORT WAYNE     CLOUDY    54  27  35 SE3       29.94F

$$

INZ028-029-035-036-043>045-051>053-250200-
WEST CENTRAL INDIANA

CITY           SKY/WX    TMP DP  RH WIND       PRES   REMARKS
GREENCASTLE +  CLOUDY    55  28  35 S8        29.90S
LAFAYETTE      LGT RAIN  53  31  42 E6        29.89F
TERRE HAUTE    CLOUDY    57  36  45 SE5       29.89F

$$

INZ030>032-037>040-046>048-054>057-064-065-250200-
CENTRAL INDIANA

CITY           SKY/WX    TMP DP  RH WIND       PRES   REMARKS
COLUMBUS       CLOUDY    55  28  35 CALM      29.93F
FRANKFORT +    CLOUDY    56  32  40 E6        29.92S
GREENWOOD *+   CLOUDY    57  23  26 SE7       29.92F
INDIANAPOLIS   CLOUDY    57  24  28 SE8       29.89F
-EAGLE CREEK   CLOUDY    58  23  26 SE6       29.90F
KOKOMO *+      CLOUDY    54  34  47 SE6       29.92S
MT COMFORT *+  CLOUDY    55  14  19 S5        29.92F
SHELBYVILLE    CLOUDY    58  38  47 SE6       29.92S

$$

INZ033-034-041-042-049-050-058-059-250200-
EAST CENTRAL INDIANA

CITY           SKY/WX    TMP DP  RH WIND       PRES   REMARKS
MUNCIE         CLOUDY    54  34  46 SE6       29.92F

$$

INZ060-061-067>069-081>083-085>088-250200-
SOUTHWEST INDIANA

CITY           SKY/WX    TMP DP  RH WIND       PRES   REMARKS
EVANSVILLE     CLOUDY    60  34  37 S17G26    29.90F
HUNTINGBURG *+ CLOUDY    59  34  38 S6        29.90F

$$

INZ062-063-066-070>080-084-089>092-250200-
SOUTH CENTRAL AND SOUTHEAST INDIANA

CITY           SKY/WX    TMP DP  RH WIND       PRES   REMARKS
BLOOMINGTON    CLOUDY    59  27  29 SE6       29.90F
MADISON *+     CLOUDY    57  28  33 CALM      29.95F
SEYMOUR +      CLOUDY    59  34  38 E6        29.92F

$$



USA.gov is the U.S. government's official web portal to all federal, state and local government web resources and services.